ASIASAT 7

Last updated on Wed Sep 17 2025 00:02:47 GMT+0000 (Coordinated Universal Time)

1 37933U 11069A 25259.59158653 -.00000354 00000+0 00000+0 0 9998 2 37933 0.0256 230.7837 0001084 22.8204 60.6694 1.00276066 42118
UTC large
Height (km)
Speed (km/s)
/
Latitude / Longitude
Inclination (degrees)
Orbital Period (minutes)
Azimuth
Elevation
Range (km)
Doppler Factor

Next 0 passes for location: London (51.5072 / 0.1276)

Sorry there are no passes over London.